Temperature
20 18 17 15 15 15 15 14 14 14 13 13 14 12 12 12 12 12 12 12 12 12 12 12 12 12 13 13 12 12 12 12 13 13 14 13 12 11 12 12 12 12 12
19 18 17 15 15 15 14 14 14 14 13 13 12 11 11 12 12 12 12 11 11 11 11 11 11 12 12 12 12 11 11 11 12 13 13 13 12 12 12 12 11 12 12
19 18 17 15 15 14 14 14 14 13 13 13 12 11 11 12 12 12 11 11 11 11 11 11 11 11 12 11 11 11 11 11 12 12 12 12 12 12 12 12 11 12 12
20 18 17 15 15 14 14 14 13 13 13 13 12 12 12 12 12 11 11 11 11 12 12 12 12 11 12 11 10 11 11 12 13 12 12 12 12 12 11 12 11 11 11
20 18 17 15 15 14 14 14 13 13 13 13 13 12 12 12 12 12 12 11 11 12 13 12 12 12 12 11 11 11 12 12 13 12 12 12 11 11 11 12 12 12 13
21 19 17 15 14 14 14 14 13 13 13 13 13 12 13 13 12 12 12 12 12 12 13 13 13 13 13 13 12 12 12 13 13 12 12 11 11 11 11 12 13 13 14
21 19 17 16 15 14 14 14 13 13 13 13 12 12 13 13 12 12 12 12 13 13 13 13 12 13 13 13 13 12 12 13 13 12 12 12 12 12 11 12 14 14 14
21 19 17 16 15 14 14 14 14 13 13 13 13 12 12 12 12 12 13 13 13 12 12 11 11 12 12 13 13 13 13 13 13 12 12 12 12 12 11 11 13 14 14
21 19 17 16 15 14 14 14 14 14 14 14 13 13 12 12 12 13 13 13 12 12 11 11 11 11 11 12 13 13 13 13 13 13 13 13 12 12 11 11 13 13 14
21 20 18 17 16 15 15 14 14 14 14 14 14 14 13 13 14 14 14 14 13 13 12 12 12 12 12 12 12 13 13 13 13 13 13 13 12 12 12 11 12 13 13
22 21 19 17 16 16 16 15 14 14 14 14 14 14 14 14 15 15 15 15 14 13 13 13 12 12 12 12 13 13 13 13 13 13 13 12 12 12 12 12 11 12 13
23 21 20 18 17 17 17 16 16 15 15 15 15 15 15 15 15 15 15 14 14 13 13 13 12 12 12 13 13 13 13 13 13 13 13 12 12 12 12 12 11 11 12
22 21 20 19 18 17 17 16 16 16 16 16 16 16 16 16 16 15 15 14 14 14 13 13 13 13 13 13 13 13 13 13 13 13 13 12 12 12 12 12 12 11 11
21 20 20 19 18 18 17 17 17 16 16 16 16 16 16 16 16 16 15 15 15 14 14 14 13 13 13 13 13 13 13 13 13 13 13 13 13 12 12 12 12 11 10
20 20 20 19 19 18 18 17 17 17 17 16 16 17 16 16 16 16 16 15 15 14 14 14 14 13 13 13 13 13 13 13 13 13 13 13 13 12 12 12 12 11 11
20 20 20 19 19 18 18 18 17 17 17 16 16 16 16 16 16 16 15 15 15 14 14 14 14 14 14 13 13 13 13 13 13 13 13 13 13 13 12 12 12 12 11
21 21 20 20 19 19 19 18 18 17 17 16 16 16 16 16 15 15 15 15 14 14 13 13 13 13 13 13 12 12 12 12 13 13 13 13 13 13 12 12 12 12 11
20 21 21 21 20 20 19 18 18 17 17 17 16 16 15 15 14 14 14 14 13 13 13 12 12 12 12 12 12 12 12 12 12 12 12 12 12 12 12 12 12 12 12
20 20 20 20 20 19 19 18 18 17 17 17 16 16 15 14 14 13 13 13 13 12 12 12 12 12 12 12 12 11 11 11 12 12 12 12 12 12 12 12 12 12 12
19 19 19 19 19 19 19 18 17 17 16 16 15 15 14 14 13 13 13 12 12 12 12 12 12 12 11 11 11 12 12 12 12 12 12 12 12 12 12 12 12 12 12
18 19 19 19 19 18 18 17 16 15 15 14 14 14 14 14 13 13 13 13 12 12 12 12 12 12 11 11 11 11 12 12 12 13 13 13 13 13 12 12 12 12 12
18 19 19 19 18 18 17 17 16 14 14 13 13 13 13 13 13 12 12 12 12 12 12 12 11 11 11 11 10 10 10 10 12 12 12 12 13 13 12 12 12 12 12
17 17 17 17 17 17 16 16 15 14 13 13 13 12 12 12 12 12 11 11 11 11 11 11 11 10 10 10 9 10 10 10 10 11 11 12 12 12 12 12 12 12 12
15 15 15 15 15 15 14 14 14 13 13 12 12 11 11 11 11 11 11 11 11 11 11 10 10 10 9 9 9 9 9 9 9 9 10 10 11 11 11 11 11 11 11
14 14 14 14 14 13 13 13 13 12 12 12 12 12 12 12 11 11 11 11 11 10 10 10 10 10 9 9 8 8 8 8 8 7 8 8 9 9 9 10 10 10 10
13 13 13 13 13 12 12 12 12 12 12 12 12 12 12 11 11 11 11 10 9 9 8 8 8 8 8 8 8 7 7 6 6 5 5 6 6 7 8 8 9 9 9
Wind_Speed
5 7 16 16 15 13 14 12 11 9 8 7 6 5 4 4 4 3 2 1 0 2 4 4 2 1 2 4 5 4 3 4 4 3 3 6 3 2 4 2 2 2 3
6 10 16 15 13 14 13 11 10 9 8 7 7 6 5 4 2 1 1 1 1 2 3 3 3 1 1 3 3 2 2 2 0 2 4 5 6 2 2 1 2 4 5
6 11 14 14 14 14 13 12 11 10 9 8 7 7 7 7 5 3 2 1 1 1 3 5 4 1 1 1 3 2 2 2 3 5 6 5 6 4 4 4 2 4 6
8 12 12 15 16 16 15 13 12 11 10 9 8 7 9 9 7 5 4 3 3 2 4 6 7 2 2 3 3 3 4 4 4 6 6 7 6 6 6 6 6 5 4
8 12 13 15 15 15 14 12 11 10 10 10 9 7 10 9 8 6 3 4 4 4 5 6 6 4 4 5 3 3 5 5 4 5 5 6 6 8 7 8 7 6 4
9 11 12 14 15 15 13 12 11 11 10 10 9 9 9 10 9 8 5 5 5 6 6 7 8 7 7 8 8 7 6 4 2 4 5 5 7 9 9 8 8 8 8
8 9 11 15 15 15 14 13 12 11 11 10 9 8 9 11 10 9 7 6 7 8 9 9 9 10 10 10 10 10 9 4 2 4 6 6 8 11 11 10 10 10 9
8 8 10 15 16 15 15 14 14 13 11 10 9 7 6 8 9 8 8 8 8 10 10 11 11 11 11 12 12 12 11 5 5 5 6 8 9 13 13 12 12 11 11
6 6 7 10 13 15 15 15 14 13 12 11 10 9 5 4 6 7 9 8 9 11 12 12 12 12 12 13 13 13 13 9 6 7 8 9 11 14 16 15 14 14 14
5 6 5 7 9 10 12 15 15 13 12 12 11 10 8 6 6 7 9 9 10 12 13 13 13 13 13 13 14 14 14 13 8 9 10 11 14 17 18 18 17 16 16
5 5 6 6 7 8 9 11 13 13 13 12 11 10 10 8 7 8 9 9 11 13 13 14 14 14 14 13 14 15 15 11 9 9 12 14 18 20 20 21 20 19 19
7 6 6 7 6 7 8 8 8 8 9 9 8 7 8 8 9 9 9 10 12 13 13 15 16 16 14 10 12 13 10 10 10 10 13 18 21 23 23 23 23 22 22
6 6 7 8 7 6 4 5 5 6 7 8 8 8 8 7 6 5 5 6 8 10 10 11 12 11 9 8 8 10 11 11 11 13 15 21 23 25 26 26 26 26 25
5 8 8 8 8 7 6 4 5 4 5 6 9 10 7 4 3 4 4 6 7 7 7 8 8 10 10 11 11 9 10 11 12 14 16 22 25 27 28 29 28 28 28
8 9 9 10 10 9 8 6 4 4 6 8 9 10 9 4 6 4 4 5 7 8 7 6 6 7 8 8 10 9 9 11 14 16 17 22 26 27 28 29 30 30 31
9 9 9 10 11 10 9 8 7 5 7 7 8 11 12 9 5 6 6 5 6 9 9 8 9 9 9 8 10 11 11 11 13 15 17 20 25 28 29 30 31 33 33
8 8 9 9 10 11 11 10 8 6 7 5 7 11 12 11 7 5 6 7 7 10 9 8 7 6 9 9 12 12 12 11 12 13 16 17 19 24 29 31 33 34 35
7 8 6 6 8 10 9 8 6 4 5 5 7 8 9 10 10 5 7 9 7 7 5 7 7 7 10 10 11 11 11 11 13 13 13 15 16 18 23 30 33 34 36
8 8 8 4 4 6 7 5 5 4 5 3 4 4 6 9 10 6 8 8 7 5 6 8 8 7 11 12 12 12 10 11 13 14 15 15 16 18 19 24 30 33 35
9 9 9 9 7 2 2 1 1 1 2 2 2 4 7 7 8 6 7 8 7 6 7 7 10 9 10 12 13 14 13 13 12 14 16 16 15 17 18 19 19 20 28
11 11 11 13 10 6 5 4 2 2 2 2 2 4 5 5 5 4 5 7 6 6 8 9 8 10 10 8 8 10 11 12 13 14 14 14 16 17 16 16 15 15 15
11 12 14 14 13 9 5 3 3 4 4 4 6 8 10 9 8 5 5 5 6 6 8 8 8 7 7 6 5 6 7 6 9 12 12 13 15 14 15 17 17 16 13
12 12 12 13 14 13 9 6 6 5 5 6 7 7 7 10 11 9 9 8 8 7 7 8 7 8 10 8 7 7 8 8 5 6 9 12 13 13 13 14 16 17 16
9 9 11 12 13 13 11 13 13 9 7 6 4 5 7 8 9 10 8 9 8 7 8 8 8 7 8 9 7 7 10 11 12 9 5 7 10 12 13 12 13 15 16
8 9 10 12 14 13 13 12 11 9 6 4 5 8 9 8 8 10 9 10 9 8 8 9 8 8 6 7 7 8 9 10 10 12 14 9 8 8 9 11 12 13 14
8 9 9 13 13 12 12 12 11 11 10 10 10 10 8 7 7 10 10 9 9 8 9 9 9 10 8 9 8 7 8 7 9 9 14 16 13 10 10 10 10 11 11
Wind_Direction
225 201 193 185 180 182 163 156 156 156 160 159 160 173 154 125 106 100 100 115 178 293 288 265 252 159 106 109 109 110 108 94 66 48 15 354 4 89 92 63 203 237 176
174 179 191 183 180 169 160 160 162 166 172 178 174 185 184 170 150 112 270 201 207 293 314 298 251 167 108 117 112 117 142 141 78 328 322 325 327 253 182 247 247 214 182
160 173 191 183 178 171 168 168 170 174 182 192 193 193 193 180 177 199 207 181 207 290 316 328 296 226 0 237 175 177 225 247 278 294 285 279 287 256 213 219 230 166 145
165 170 187 189 188 182 176 175 177 184 192 201 209 209 198 184 179 196 224 237 250 269 293 308 330 332 336 297 197 190 236 253 288 297 271 247 258 256 221 217 212 171 159
160 167 184 195 195 183 180 178 183 191 199 210 218 221 205 191 177 176 206 248 259 261 272 282 302 306 285 279 248 229 252 263 310 308 255 227 240 252 228 218 214 197 201
162 168 185 199 189 182 183 185 189 195 204 213 223 229 215 200 189 184 197 233 246 251 252 259 265 272 273 270 262 255 261 261 311 305 262 236 239 250 237 223 225 226 226
163 169 188 200 190 187 188 191 193 201 204 214 230 242 227 210 205 195 200 222 238 245 248 255 260 262 264 266 268 271 267 236 244 280 258 248 250 248 238 228 228 228 229
163 167 193 205 197 193 194 195 196 202 205 215 233 231 219 224 213 201 211 230 246 252 255 260 265 267 266 265 267 270 270 249 238 267 261 251 252 251 245 233 231 232 231
161 163 190 211 206 199 200 201 204 206 207 214 227 229 207 204 216 222 231 246 257 258 257 260 265 269 270 270 271 271 270 260 237 252 261 254 254 254 254 243 235 235 233
176 182 188 207 206 204 206 207 210 212 212 216 226 237 208 201 218 239 250 251 257 262 261 262 267 273 276 277 275 272 272 270 251 250 261 263 257 254 257 254 241 239 238
196 197 194 201 206 204 206 213 215 216 218 222 232 241 210 207 222 241 254 254 260 268 270 269 272 275 277 280 279 276 272 265 250 246 256 264 263 257 257 261 253 243 242
203 204 197 203 209 205 207 209 215 218 224 227 229 230 214 215 227 241 257 266 271 276 280 279 278 278 283 287 283 280 271 266 259 252 257 266 267 264 262 261 260 251 246
213 213 196 204 208 201 204 202 209 217 225 230 227 225 222 225 239 257 276 286 286 286 285 282 283 282 280 275 271 266 262 263 261 261 262 267 268 266 263 261 259 256 249
232 228 212 205 207 205 204 205 206 209 218 223 225 223 216 218 227 237 241 250 257 260 261 260 257 259 260 260 257 255 256 256 256 258 260 264 264 263 262 261 259 258 256
242 237 221 210 209 206 206 211 204 207 216 222 225 226 219 211 225 221 229 241 245 244 242 245 248 250 253 255 254 249 248 249 253 252 257 259 261 262 264 262 261 260 260
253 249 232 215 210 206 208 211 216 211 220 222 224 228 225 225 224 232 243 243 242 242 243 244 246 251 255 256 259 252 251 250 252 250 250 254 256 258 260 261 259 258 258
296 278 247 226 208 207 211 211 214 211 215 217 226 230 227 227 231 234 250 254 252 249 249 253 254 255 262 258 260 257 255 252 251 251 251 251 253 255 256 257 258 256 257
337 324 290 248 210 207 211 211 210 201 212 226 233 236 235 236 237 238 253 262 258 248 243 252 256 258 263 262 264 264 259 258 256 254 254 253 252 252 254 255 256 256 256
1 359 0 337 245 214 210 208 211 207 224 245 255 258 255 251 247 242 258 268 269 255 250 256 261 251 270 273 270 270 262 257 258 257 254 252 250 250 250 253 252 251 253
22 22 26 30 22 45 122 125 35 338 316 311 295 275 266 259 254 244 260 273 278 273 268 257 264 265 268 276 281 280 273 263 258 256 254 254 251 249 249 250 252 252 250
29 29 30 36 29 48 70 74 71 14 346 348 337 315 310 304 292 263 272 281 282 275 280 278 275 278 278 276 279 282 275 261 257 258 255 255 254 252 248 248 249 248 250
35 34 38 38 36 39 60 78 87 87 58 47 37 35 31 30 23 14 355 335 323 311 308 304 295 291 288 267 261 284 287 268 247 249 251 250 252 252 251 249 249 248 246
39 37 45 40 41 40 44 57 56 52 44 34 27 29 24 35 35 30 24 15 4 360 343 331 320 309 308 298 256 269 290 290 282 252 247 249 248 248 249 248 248 248 247
42 42 49 50 48 43 48 62 66 65 58 29 16 17 18 23 25 20 13 8 1 357 351 344 345 330 322 319 312 274 279 292 298 298 251 251 257 256 255 255 253 251 249
56 56 57 60 55 50 54 58 66 64 56 36 27 24 20 15 16 15 8 3 356 349 340 335 335 332 325 318 317 314 311 308 299 302 302 298 286 274 274 269 266 262 256
64 61 63 67 58 50 54 54 57 54 42 36 26 19 12 6 4 8 360 355 347 343 337 331 327 322 318 312 311 309 310 307 310 307 303 304 301 294 290 285 281 277 269
Height
1498 1498 1499 1501 1502 1503 1505 1505 1506 1507 1506 1506 1505 1506 1508 1508 1509 1510 1510 1510 1510 1509 1509 1510 1512 1512 1513 1513 1512 1512 1511 1510 1510 1510 1510 1510 1511 1511 1512 1512 1511 1511 1511
1498 1498 1498 1500 1502 1503 1504 1505 1506 1506 1506 1505 1505 1506 1508 1508 1509 1509 1510 1510 1509 1509 1509 1510 1511 1511 1511 1512 1511 1511 1510 1509 1509 1509 1509 1510 1510 1510 1510 1510 1510 1510 1511
1497 1497 1498 1499 1501 1503 1504 1504 1505 1505 1505 1505 1505 1507 1508 1508 1508 1509 1509 1509 1509 1508 1509 1509 1510 1510 1510 1510 1509 1508 1508 1508 1508 1508 1509 1509 1509 1509 1509 1509 1509 1510 1510
1497 1497 1498 1499 1501 1502 1503 1504 1504 1504 1504 1504 1505 1507 1508 1508 1508 1509 1509 1508 1508 1508 1508 1508 1508 1508 1509 1509 1508 1507 1507 1506 1506 1507 1508 1508 1508 1508 1508 1508 1508 1509 1509
1497 1497 1497 1499 1500 1502 1503 1504 1503 1503 1504 1504 1504 1506 1507 1508 1508 1508 1508 1507 1507 1506 1507 1507 1507 1507 1507 1507 1507 1506 1505 1505 1505 1506 1507 1507 1507 1507 1507 1507 1507 1507 1507
1496 1496 1497 1499 1501 1502 1503 1503 1503 1503 1503 1503 1504 1505 1507 1508 1507 1507 1507 1506 1505 1505 1505 1505 1506 1506 1506 1506 1505 1505 1504 1504 1504 1505 1505 1506 1506 1506 1506 1506 1506 1506 1505
1496 1496 1498 1499 1500 1501 1502 1502 1502 1502 1502 1503 1503 1504 1506 1507 1507 1506 1505 1505 1505 1504 1504 1504 1504 1504 1504 1504 1504 1503 1503 1502 1503 1503 1504 1504 1505 1504 1505 1504 1504 1504 1504
1496 1496 1497 1499 1500 1500 1501 1501 1501 1501 1501 1502 1502 1503 1504 1506 1506 1505 1504 1504 1504 1503 1503 1503 1503 1503 1503 1502 1502 1502 1501 1501 1501 1502 1502 1503 1503 1503 1503 1503 1502 1502 1502
1496 1496 1497 1499 1500 1500 1500 1501 1501 1500 1500 1501 1501 1502 1503 1504 1504 1503 1503 1503 1503 1503 1503 1503 1502 1502 1501 1501 1501 1500 1500 1500 1500 1500 1501 1501 1501 1501 1502 1502 1501 1500 1500
1496 1496 1497 1498 1499 1500 1500 1500 1500 1500 1500 1500 1500 1501 1501 1502 1502 1502 1502 1502 1502 1501 1501 1501 1501 1501 1500 1500 1499 1499 1499 1498 1497 1498 1498 1499 1499 1499 1499 1500 1499 1499 1498
1495 1495 1496 1497 1498 1499 1499 1499 1499 1499 1499 1499 1500 1500 1500 1501 1501 1501 1501 1501 1500 1500 1500 1500 1500 1499 1499 1498 1497 1497 1496 1496 1495 1495 1495 1496 1496 1496 1496 1496 1496 1496 1495
1494 1495 1495 1496 1497 1498 1498 1498 1499 1499 1499 1499 1499 1499 1500 1500 1500 1500 1500 1500 1499 1499 1499 1498 1498 1497 1496 1495 1494 1494 1493 1492 1492 1492 1492 1492 1492 1492 1492 1492 1492 1492 1492
1494 1494 1494 1495 1496 1497 1497 1498 1498 1498 1498 1498 1498 1498 1499 1499 1499 1499 1498 1498 1498 1497 1497 1496 1496 1495 1494 1493 1491 1490 1489 1488 1487 1487 1487 1487 1487 1486 1486 1486 1487 1487 1487
1492 1492 1493 1493 1494 1495 1496 1496 1497 1497 1497 1497 1498 1498 1498 1498 1498 1498 1497 1497 1496 1496 1495 1494 1493 1492 1491 1490 1488 1487 1485 1484 1483 1482 1481 1481 1481 1480 1479 1480 1480 1481 1481
1490 1490 1490 1491 1491 1492 1493 1494 1494 1495 1495 1496 1496 1497 1497 1497 1497 1497 1496 1495 1495 1494 1493 1492 1491 1489 1488 1486 1485 1483 1482 1480 1479 1477 1475 1475 1474 1474 1473 1473 1473 1473 1474
1487 1487 1487 1488 1488 1489 1490 1491 1492 1493 1493 1494 1495 1495 1495 1495 1495 1495 1494 1493 1492 1491 1490 1489 1487 1485 1483 1481 1479 1478 1477 1475 1473 1472 1470 1468 1467 1466 1465 1465 1464 1464 1464
1483 1483 1483 1484 1484 1486 1487 1489 1489 1490 1491 1492 1492 1493 1494 1494 1493 1492 1491 1490 1489 1488 1486 1484 1482 1480 1478 1475 1473 1471 1470 1468 1466 1464 1463 1461 1459 1458 1457 1456 1454 1454 1454
1481 1480 1479 1479 1480 1482 1484 1486 1487 1488 1488 1489 1490 1491 1491 1491 1490 1489 1488 1486 1485 1483 1481 1479 1477 1474 1472 1468 1465 1463 1461 1459 1457 1455 1454 1452 1450 1449 1447 1447 1446 1445 1444
1479 1478 1477 1476 1477 1478 1481 1483 1484 1485 1486 1487 1487 1487 1487 1487 1486 1485 1484 1482 1480 1478 1475 1473 1471 1468 1465 1462 1458 1455 1452 1450 1448 1446 1444 1443 1441 1439 1437 1436 1435 1434 1433
1478 1477 1476 1475 1475 1476 1477 1479 1481 1482 1483 1484 1484 1484 1483 1482 1481 1480 1478 1477 1475 1473 1470 1468 1465 1462 1459 1456 1452 1448 1446 1444 1441 1438 1436 1434 1432 1429 1427 1425 1423 1421 1421
1479 1478 1476 1475 1475 1475 1476 1477 1478 1479 1480 1480 1480 1480 1479 1478 1477 1476 1474 1473 1471 1468 1466 1463 1459 1456 1453 1450 1446 1440 1438 1437 1434 1432 1429 1426 1423 1421 1419 1417 1415 1413 1411
1480 1478 1478 1477 1477 1477 1477 1477 1478 1478 1479 1479 1479 1478 1477 1476 1475 1473 1471 1469 1466 1464 1461 1458 1454 1450 1447 1446 1442 1436 1430 1426 1424 1423 1420 1418 1415 1413 1410 1408 1406 1404 1402
1480 1480 1480 1480 1479 1479 1478 1478 1478 1478 1479 1479 1478 1477 1476 1475 1473 1471 1469 1466 1464 1460 1457 1454 1451 1447 1443 1441 1439 1435 1428 1418 1415 1412 1411 1408 1405 1402 1401 1399 1397 1395 1393
1482 1483 1483 1482 1481 1481 1480 1479 1479 1479 1479 1479 1479 1478 1476 1474 1472 1470 1467 1464 1461 1458 1455 1452 1448 1444 1439 1435 1433 1430 1427 1420 1413 1402 1399 1399 1397 1394 1391 1389 1387 1385 1383
1484 1485 1485 1484 1483 1483 1482 1482 1481 1480 1480 1480 1479 1477 1475 1473 1470 1468 1465 1462 1459 1455 1452 1448 1444 1440 1436 1431 1427 1423 1418 1414 1409 1403 1393 1389 1387 1386 1384 1381 1377 1374 1372
1485 1486 1486 1485 1484 1485 1484 1483 1483 1482 1481 1479 1477 1475 1473 1470 1467 1464 1461 1458 1454 1450 1447 1443 1439 1435 1431 1427 1422 1417 1413 1408 1403 1398 1390 1382 1377 1374 1374 1371 1369 1366 1363